Погода в Жанауштогане

Хотите узнать прогноз погоды в Жанауштогане? Тогда Вам сюда: Погода в Жанауштогане

Поиск расширенной информации на нашем сайте:

Полезная информация:

Новости сайта



02.01.2020
Опубликован Долгосрочный прогноз погоды по городам России и ближнего зарубежья на январь 2020 года.
Карты: Прогноз на январь и февраль 2020 года, Сравнение прогнозируемой аномалии приземной температуры воздуха на январь 2020 года по разным моделям.




Погода в Жанауштогане - сегодня

Время (UTC), дата Ветер
(°,м/с) 
Видим.   Явления Облачность Т
(°С)
Тd
(°С)
f(%) Тe
(°С)
Pmin
(гПа)
dP
(гПа)
Po
(мм)
O2
(г/м3)
Тmin Tmax R s Состояние
почвы
09 22.10.21 250 (З) 20000 м  пыльный позёмок  3/0 верхняя 
[Ci sp]
+16.6 +4.3 44 +16  1018.4  -0.8  765  290           
12 22.10.21 250 (З) 20000 м  пыльный позёмок  3/0 верхняя 
[Ci sp]
+19.4 +4 36 +19  1016.8  -1.6  764  287           
15 22.10.21 230 (ЮЗ) 20000 м    3/0 верхняя 
[Ci sp]
+15.2 +1.3 39 +15  1016.8  764  291    +20.2       
18 22.10.21 230 (ЮЗ) 20000 м    3/0 верхняя 
[Ci sp]
+9.5 -1.7 45 +10  1017.1  0.3  764  298    +20.2       
21 22.10.21 230 (ЮЗ) 20000 м    3/0 верхняя 
[Ci sp]
+9.9 +4.3 68 +10  1017.2  0.1  764  296           
00 23.10.21 тихо ()   20000 м    ясно 
+6.9 +1.4 68 +7  1017.9  0.7  764  300           
03 23.10.21 тихо ()   20000 м    ясно 
+4.9 +4.2 95 +5  1017.9  764  302  +4.8         
06 23.10.21 200 (Ю) 20000 м    3/0 верхняя 
[Ci sp]
+9.5 +5.8 78 +10  1018.3  0.4  765  297  +4.8         
09 23.10.21 200 (Ю) 20000 м    3/0 верхняя 
[Ci sp]
+17.2 +7.3 52 +18  1018  -0.3  764  289           
12 23.10.21 200 (Ю) 20000 м    3/0 верхняя 
[Ci sp]
+20.3 +7.3 43 +20  1017  -1  764  285           
15 23.10.21 230 (ЮЗ) 20000 м    3/0 верхняя 
[Ci sp]
+14.9 +9.7 71 +16  1016.7  -0.3  763  290    +21.6       
18 23.10.21 230 (ЮЗ) 20000 м    4/0 средняя, верхняя 
[Ac trans|Ci sp]
+11.7 +9.3 85 +12  1016.7  763  293    +21.6       
21 23.10.21 230 (ЮЗ) 20000 м    3/0 верхняя 
[Ci sp]
+10.6 +9.8 95 +12  1016.2  -0.5  763  294           
00 24.10.21 230 (ЮЗ) 20000 м    3/0 верхняя 
[Ci sp]
+8.3 +7.7 96 +8  1015.5  -0.7  763  297           
03 24.10.21 тихо ()   20000 м    8/0 верхняя 
[Ci sp]
+7.6 +7.1 97 +8  1015.4  -0.1  762  298           
06 24.10.21 тихо ()   20000 м    9/0 средняя, верхняя 
[Ac trans|Ci sp]
+10.7 +9.3 91 +11  1016.7  1.3  763  294  +7.5         
09 24.10.21 тихо ()   20000 м    9/0 средняя, верхняя 
[Ac trans|Ci sp]
+14.8 +9.2 69 +15  1016.8  0.1  764  290           
12 24.10.21 тихо ()   20000 м    10/0 средняя 
[As op]
+14.3 +8.4 68 +14  1016.2  -0.6  763  291           
15 24.10.21 тихо ()   20000 м    10/0 средняя 
[As op]
+13 +7.7 70 +13  1016.6  0.4  763  292    +15.6       
18 24.10.21 тихо ()   4000 м  слаб. ливневой дождь  10/9 600 м кучево-дожд. 
[Cb calv]
+10.6 +8.8 89 +11  1016.6  763  295    +15.6       
21 24.10.21 320 (СЗ) 20000 м  {ливн. осадки}  9/9 600 м кучево-дожд. 
[Cb calv]
+9.2 +7.7 90 +9  1016.8  0.2  764  296           
00 25.10.21 тихо ()   4000 м  слаб. ливневой дождь  9/9 600 м кучево-дожд. 
[Cb calv]
+8 +6.7 91 +8  1016.8  764  298           
03 25.10.21 тихо ()   20000 м  {ливн. осадки}  8/4 600 м средняя 
[Sc|Ac und]
+7 +5.6 91 +7  1017.5  0.7  764  299  +6.9         
06 25.10.21 230 (ЮЗ) 20000 м  {ливн. осадки}  6/0 средняя 
[Ac trans]
+9.3 +7.4 88 +9  1018.2  0.7  765  297  +6.9       
09 25.10.21 270 (З) 20000 м    6/6 600 м 
[Cu med, cong]
+11.3 +4.6 63 +12  1018.8  0.6  765  295           
Время (UTC), дата Ветер
(°,м/с) 
Видим.   Явления Облачность Т
(°С)
Тd
(°С)
f(%) Тe
(°С)
Pmin
(гПа)
dP
(гПа)
Po
(мм)
O2
(г/м3)
Тmin Tmax R s Состояние
почвы

Для получения пояснительной информации подведите курсор к названию столбца.

ПОГОДА в Жанауштогане - архив

Всё, что Вы хотите узнать о погоде в Жанауштогане - удобно и подробно!

Выберите нужную дату (начиная с 1 января 2019* года) и нажмите кнопку "Найти".
Будут отображены архивные сводки погоды по пункту Жанауштоган, начиная с указанной даты.


Отображать данные в формате CSV (для использования в таблицах Excel)


Внимание! Наш архив погоды предназначен исключительно для личного некоммерческого использования в познавательных целях. Если Вам необходимы официальные справки о состоянии погоды (для производственных, юридических, коммерческих и т.п. целей), обращайтесь в органы Росгидромета.

*Примечание: данная дата относится к архиву по метеостанциям СССР (Россия, СНГ, Балтия).
Архив по метеостанциям Зарубежной Европы и Азии (кроме Китая) хранится 10 дней, по другим регионам земного шара (Китай, Африка, Америка, Австралия, Океания) - 1 день.

Жанауштоган - район местоположения метеостанции


Название, широта, долгота, высота метеостанции:
Жанауштоган 47.9°ш. 48.8°д. -10 м над ур. моря [Казахстан]

Дополнительная информация

В oтличие oт бoльшинства пoгoдных сайтoв мы публикуем пoдрoбную метеoинфoрмацию в детальнoм прoфессиoнальнoм фoрмате.

Характеристики температуры и влажнoсти вoздуха измеряются на высoте 2 м в тени вдали oт зданий и деревьев.
Скoрoсть ветра измеряется на высoте 10 м (на урoвне рoста челoвека скoрoсть ветра ниже в 1.5-2 раза). Если метеoстанция нахoдится в гoрoде или в лесу, тo скoрoсть ветра занижена на 2-4 м/с пo сравнению с oткрытым местoм. Скoрoсть ветра над акватoриями крупных рек и oзёр, а также на вершинах хoлмoв на 2-5 м/с выше, чем в oбычных услoвиях.
Атмoсфернoе давление в разных тoчках местнoсти мoжет значительнo oтличаться oт давления на метеoстанции, в зависимoсти oт услoвий рельефа (при пoдъёме на 10 м давление пoнижается примернo на 1 мм рт.ст.).